www.pogodaiklimat.ru

Погода и климат >> Архив погоды >> Австрия >> Рид-им-Иннкрайс


ПОГОДА в Рид-им-Иннкрайсе

  • Прогноз погоды в Рид-им-Иннкрайсе
  • Монитор погоды в Рид-им-Иннкрайсе

АРХИВ ПОГОДЫ в Рид-им-Иннкрайсе

Время (UTC), дата Ветер
(напр.,м/с)
 
Видим.   Явления Облачность Т
(С)
Тd
(С)
f
(%)
Тe
(С)
Тes
(С)
Комфортность P
(гПа)
Po
(гПа)
Тmin
(С)
Tmax
(С)
R
(мм)
R24
(мм)
S
(см)
01 11.09 штиль 0 н/о н/о +9.7 +8.7 93 +9 +9 1021.3 970.2
02 11.09 ЮЗ 1 н/о н/о +9.8 +8.9 94 +9 +9 1021.3 970.2
03 11.09 штиль 0 н/о н/о +9.2 +8.4 95 +8 +8 1021.2 970.0
04 11.09 штиль 0 н/о н/о +9.1 +8.4 95 +8 +8 1022.0 970.7
05 11.09 штиль 0 н/о н/о +9.3 +8.5 95 +8 +8 1022.2 971.0
06 11.09 С 1 20 км 4/0
[Ac trans Ci fib]
+10.0 +8.9 93 +9 +10 1023.0 971.9 +8.8 +14.7
07 11.09 штиль 0 н/о н/о +13.0 +10.3 84 +13 +13 1023.1 972.5
08 11.09 СЗ 1 н/о н/о +13.3 +11.1 87 +13 +13 1023.6 973.0
09 11.09 З 1 20 км 10/0
[Ac As]
+14.6 +11.4 81 +15 +18 1023.6 973.3
10 11.09 З 1 н/о н/о +15.5 +11.0 75 +16 +16 1023.7 973.5
11 11.09 СЗ 1 н/о н/о +15.9 +11.5 75 +17 +17 1023.5 973.4
13 11.09 З 1 н/о н/о +16.9 +11.9 72 +18 +18 1024.0 974.0
14 11.09 ЮЗ 1 н/о в посл. час осадки н/о +17.2 +12.8 75 +18 +18 1023.4 973.5 0.1
15 11.09 З 1 н/о {осадки} н/о +18.8 +12.4 66 +21 +21 комфорт 1022.9 973.3 0.1
16 11.09 штиль 0 н/о н/о +18.6 +11.7 64 +19 +19 1023.1 973.5
17 11.09 штиль 0 н/о н/о +17.5 +12.9 74 +18 +18 1024.0 974.1
18 11.09 штиль 0 30 км {осадки} 1/0
[Ci fib]
+15.2 +12.7 85 +15 +15 1024.8 974.5 +9.7 +18.8 0.1
19 11.09 Ю 1 н/о н/о +13.7 +11.8 88 +14 +14 1026.0 975.4
20 11.09 Ю 1 н/о н/о +12.9 +11.2 89 +13 +13 1026.7 975.9
21 11.09 штиль 0 н/о н/о +11.5 +10.4 93 +11 +11 1027.5 976.4
22 11.09 ЮЗ 1 н/о н/о +11.2 +10.2 94 +11 +11 1028.1 976.9
23 11.09 штиль 0 н/о н/о +10.1 +9.3 95 +9 +9 1028.4 977.0
00 12.09 штиль 0 н/о н/о +9.6 +8.9 95 +9 +9 1028.6 977.1
01 12.09 штиль 0 н/о н/о +9.5 +8.7 95 +9 +9 1029.3 977.7
02 12.09 штиль 0 н/о н/о +9.1 +8.4 95 +8 +8 1029.8 978.1
03 12.09 штиль 0 н/о н/о +9.0 +8.2 95 +8 +8 1030.1 978.4
04 12.09 штиль 0 н/о н/о +9.1 +8.4 95 +8 +8 1030.4 978.7
05 12.09 штиль 0 н/о н/о +10.5 +9.7 95 +10 +10 1030.7 979.3
06 12.09 ЮЗ 1 25 км 8/0
[Ac As]
+14.0 +11.6 85 +14 +15 1030.5 979.7 +8.8 +15.4
07 12.09 З 1 н/о н/о +15.5 +11.6 78 +16 +16 1031.0 980.4
08 12.09 ЮЗ 1 н/о н/о +16.1 +10.7 70 +17 +17 1031.5 981.0
09 12.09 З 1 30 км 9/0
[Ac As]
+17.5 +10.9 65 +19 +22 1031.6 981.3
10 12.09 ЮЗ 1 н/о н/о +18.4 +10.4 60 +20 +20 1031.5 981.4
11 12.09 З 1 н/о н/о +19.8 +9.9 53 +22 +22 комфорт 1031.1 981.2
12 12.09 ЮЗ 2 40 км 6/0
[Ac trans]
+20.9 +10.2 50 +23 +30 комфорт 1030.8 981.1
13 12.09 З 1 н/о н/о +21.3 +10.6 50 +23 +23 комфорт 1030.5 980.9
14 12.09 ЮЗ 2 н/о н/о +21.9 +11.6 52 +24 +24 комфорт 1029.8 980.4
15 12.09 З 1 н/о н/о +21.9 +11.6 52 +24 +24 комфорт 1029.7 980.3
16 12.09 З 1 н/о н/о +21.5 +11.4 53 +24 +24 комфорт 1029.5 980.0
17 12.09 штиль 0 н/о н/о +19.8 +12.3 62 +21 +21 комфорт 1029.8 980.0
18 12.09 Ю 1 40 км 1/0
[Ci fib]
+17.0 +12.9 77 +18 +18 1030.5 980.2 +13.9 +22.0
20 12.09 штиль 0 н/о н/о +14.1 +11.8 86 +14 +14 1031.6 980.8
21 12.09 штиль 0 н/о н/о +12.9 +11.2 89 +12 +12 1032.0 980.9
22 12.09 штиль 0 н/о н/о +12.4 +10.9 91 +12 +12 1032.2 981.0
23 12.09 штиль 0 н/о н/о +12.2 +10.8 91 +12 +12 1032.2 981.0
00 13.09 штиль 0 н/о н/о +13.2 +11.3 88 +13 +13 1031.8 980.8
01 13.09 штиль 0 н/о н/о +13.6 +11.5 87 +13 +13 1031.8 980.9
02 13.09 штиль 0 н/о н/о +13.8 +11.5 86 +13 +13 1031.4 980.5
03 13.09 штиль 0 н/о н/о +13.9 +12.1 89 +13 +13 1031.5 980.7
04 13.09 С 1 н/о н/о +13.9 +12.1 89 +14 +14 1031.8 980.9
05 13.09 С 1 н/о н/о +13.0 +11.8 92 +13 +13 1032.1 981.1
06 13.09 штиль 0 30 км 1/0
[Ci fib]
+13.4 +12.1 92 +13 +14 1032.0 981.0 +11.9 +17.3
07 13.09 штиль 0 н/о н/о +17.7 +13.0 74 +18 +18 1031.4 981.2
08 13.09 З 1 н/о н/о +19.5 +12.9 66 +22 +22 комфорт 1031.2 981.3
09 13.09 З 1 30 км ясно +20.8 +13.5 63 +24 +34 комфорт 1030.8 981.2
10 13.09 СЗ 1 н/о н/о +22.3 +13.8 59 +25 +25 комфорт 1030.4 981.0
11 13.09 ЮЗ 1 н/о н/о +23.0 +13.3 54 +26 +26 жарко 1030.2 981.0
12 13.09 З 1 30 км 1/1 2000 м
[Cu hum]
+24.0 +13.7 53 +26 +37 жарко 1029.9 980.8
13 13.09 СЗ 1 н/о н/о +23.3 +13.9 55 +27 +27 душно 1030.0 980.8
14 13.09 СЗ 1 н/о н/о +23.9 +14.7 56 +27 +27 жарко 1029.4 980.4
15 13.09 С 1 н/о н/о +22.9 +14.8 60 +27 +27 душно 1029.5 980.3
16 13.09 С 1 н/о н/о +22.7 +14.8 61 +26 +26 жарко 1029.2 980.0
17 13.09 СЗ 1 н/о н/о +21.6 +15.2 67 +25 +25 комфорт 1029.4 980.0
18 13.09 штиль 0 30 км ясно +18.6 +14.9 79 +19 +19 1030.2 980.3 +13.2 +24.0
19 13.09 Ю 1 н/о н/о +17.2 +14.5 84 +18 +18 1030.9 980.7
20 13.09 Ю 1 н/о н/о +16.8 +14.4 86 +18 +18 1031.0 980.7 0.0
21 13.09 штиль 0 н/о н/о +16.5 +14.3 87 +16 +16 1031.2 980.9 0.0
22 13.09 штиль 0 н/о н/о +15.9 +14.0 88 +16 +16 1031.4 980.9 0.0
23 13.09 штиль 0 н/о н/о +16.0 +13.9 87 +16 +16 1030.9 980.5
00 14.09 штиль 0 н/о н/о +16.1 +13.8 86 +16 +16 1030.7 980.3 0.0
01 14.09 штиль 0 н/о н/о +15.9 +13.9 88 +16 +16 1030.6 980.2
02 14.09 штиль 0 н/о н/о +15.7 +14.0 90 +15 +15 1030.6 980.1
03 14.09 ЮЗ 1 н/о н/о +15.5 +13.9 90 +16 +16 1030.6 980.1
04 14.09 штиль 0 н/о н/о +15.6 +14.0 90 +15 +15 1030.7 980.2
05 14.09 В 1 н/о н/о +16.2 +13.9 86 +17 +17 1030.5 980.1
06 14.09 штиль 0 н/о н/о +16.9 +13.9 82 +17 +17 1030.7 980.4 +15.5 +19.0 0.0
07 14.09 штиль 0 н/о н/о +18.7 +14.3 76 +19 +19 1030.8 980.8
08 14.09 В 1 н/о н/о +19.1 +14.1 73 +21 +21 комфорт 1030.8 980.9 0.0
09 14.09 СВ 1 н/о н/о +19.8 +14.4 71 +23 +23 комфорт 1030.8 981.0 0.0
10 14.09 В 1 н/о н/о +20.3 +14.0 67 +24 +24 комфорт 1030.5 980.8
11 14.09 В 2 н/о н/о +21.2 +14.2 64 +24 +24 комфорт 1029.4 979.9
12 14.09 СВ 1 20 км 6/4 2000 м
[Sc Cs]
+21.4 +14.2 64 +24 +31 комфорт 1029.1 979.7 0.0
13 14.09 СВ 1 н/о н/о +21.4 +14.2 64 +24 +24 комфорт 1028.7 979.3
14 14.09 В 1 н/о н/о +21.4 +13.9 62 +24 +24 комфорт 1028.3 978.9
15 14.09 В 1 н/о н/о +21.4 +13.6 61 +24 +24 комфорт 1028.1 978.7
16 14.09 В 1 н/о н/о +21.1 +13.8 63 +24 +24 комфорт 1027.4 978.0
17 14.09 ЮВ 1 н/о н/о +20.3 +13.5 65 +24 +24 комфорт 1027.6 978.0
18 14.09 штиль 0 30 км ясно +18.3 +13.9 76 +19 +19 1028.0 978.1 +16.6 +22.0 0.0
19 14.09 В 1 н/о н/о +17.0 +12.9 77 +18 +18 1028.8 978.6
20 14.09 ЮВ 1 н/о н/о +15.5 +12.5 82 +16 +16 1028.9 978.5 0.0
21 14.09 штиль 0 н/о н/о +14.5 +12.0 85 +14 +14 1029.2 978.6 0.0
22 14.09 В 1 н/о н/о +13.9 +11.4 85 +14 +14 1029.2 978.5
23 14.09 штиль 0 н/о н/о +12.5 +10.8 89 +12 +12 1029.1 978.1
00 15.09 В 1 н/о н/о +14.0 +11.2 83 +14 +14 1028.3 977.6 0.0
01 15.09 штиль 0 н/о н/о +11.6 +10.1 91 +11 +11 1028.1 977.0
02 15.09 штиль 0 н/о н/о +11.1 +9.8 92 +10 +10 1027.6 976.4
03 15.09 штиль 0 н/о н/о +10.5 +9.4 93 +10 +10 1027.6 976.3
04 15.09 штиль 0 н/о н/о +9.9 +8.8 93 +9 +9 1027.6 976.2 0.0
05 15.09 Ю 1 н/о н/о +9.6 +8.6 93 +9 +9 1027.4 976.0
06 15.09 штиль 0 30 км ясно +11.2 +9.9 92 +10 +11 1027.0 975.9 +9.3 +18.6 0.0
07 15.09 штиль 0 н/о н/о +17.1 +12.0 72 +17 +17 1025.8 975.8
08 15.09 штиль 0 н/о н/о +17.9 +12.5 71 +18 +18 1025.5 975.6
09 15.09 СВ 1 н/о н/о +19.5 +13.6 69 +22 +22 комфорт 1025.1 975.5
10 15.09 штиль 0 н/о н/о +21.4 +14.2 64 +24 +24 комфорт 1024.3 975.1
11 15.09 СЗ 1 н/о н/о +21.7 +14.2 62 +25 +25 комфорт 1023.7 974.6
12 15.09 СЗ 2 30 км ясно +22.7 +14.7 61 +26 +36 жарко 1023.1 974.2
13 15.09 СЗ 1 н/о н/о +23.6 +15.1 59 +26 +26 жарко 1022.2 973.5
14 15.09 З 1 н/о н/о +24.1 +15.2 58 +27 +27 жарко 1021.5 972.9
15 15.09 З 1 н/о н/о +24.4 +14.8 55 +27 +27 жарко 1020.6 972.1
16 15.09 З 1 н/о н/о +24.1 +15.1 57 +27 +27 жарко 1020.4 971.8
17 15.09 штиль 0 н/о н/о +22.2 +15.5 66 +26 +26 душно 1020.0 971.2
18 15.09 ЮЗ 1 н/о н/о +19.1 +15.7 81 +22 +22 комфорт 1020.7 971.3 +10.7 +24.5
19 15.09 Ю 1 н/о н/о +17.7 +14.7 83 +19 +19 1021.3 971.6 0.0
20 15.09 штиль 0 н/о н/о +16.6 +14.4 87 +16 +16 1021.7 971.8
21 15.09 ЮЗ 1 н/о н/о +15.6 +13.9 90 +16 +16 1021.8 971.8 0.0
22 15.09 штиль 0 н/о н/о +15.0 +13.5 91 +15 +15 1021.8 971.6
23 15.09 штиль 0 н/о н/о +14.5 +13.3 93 +14 +14 1021.7 971.5
00 16.09 штиль 0 н/о н/о +14.1 +13.0 93 +14 +14 1021.2 970.9 0.0
01 16.09 штиль 0 н/о н/о +13.8 +12.6 92 +13 +13 1021.2 970.9
02 16.09 штиль 0 н/о н/о +14.0 +12.9 93 +14 +14 1021.1 970.8
03 16.09 штиль 0 н/о н/о +13.7 +12.7 94 +13 +13 1020.6 970.3
04 16.09 штиль 0 н/о н/о +13.9 +12.8 93 +13 +13 1020.5 970.2 0.0
05 16.09 штиль 0 н/о н/о +14.2 +13.0 92 +14 +14 1020.6 970.4
06 16.09 штиль 0 30 км 1/1
[Cu hum]
+15.5 +13.7 89 +15 +16 1020.3 970.3 +13.5 +19.4 0.0
07 16.09 ЮЗ 1 н/о н/о +18.8 +14.6 77 +21 +21 комфорт 1019.8 970.4
08 16.09 СЗ 1 н/о н/о +20.3 +14.4 69 +24 +24 комфорт 1020.0 970.8
09 16.09 З 1 н/о н/о +21.6 +14.1 62 +24 +24 комфорт 1019.6 970.7
10 16.09 З 1 н/о н/о +22.4 +13.5 57 +25 +25 комфорт 1019.0 970.2
11 16.09 ЮЗ 1 н/о н/о +23.6 +13.8 54 +26 +26 жарко 1018.2 969.6
12 16.09 З 1 30 км 5/1
[Cu hum Ac trans]
+24.5 +13.3 50 +27 +34 жарко 1017.4 969.0
13 16.09 З 1 н/о н/о +24.5 +14.3 53 +27 +27 жарко 1016.5 968.2
14 16.09 СЗ 2 н/о н/о +25.1 +15.0 53 +28 +28 жарко 1015.9 967.7
15 16.09 СЗ 1 н/о н/о +24.2 +15.0 56 +27 +27 жарко 1015.8 967.5
16 16.09 З 1 н/о н/о +23.8 +15.2 59 +27 +27 жарко 1015.5 967.1
17 16.09 штиль 0 н/о н/о +22.3 +15.8 67 +26 +26 жарко 1015.5 966.9
18 16.09 штиль 0 30 км 10/0
[Ac As]
+20.6 +16.1 75 +23 +23 комфорт 1015.9 967.0 +15.4 +25.3
19 16.09 штиль 0 н/о н/о +19.9 +16.2 79 +22 +22 комфорт 1016.1 967.1
20 16.09 штиль 0 н/о в посл. час осадки н/о +19.1 +17.0 88 +21 +21 комфорт 1016.5 967.4 0.1
21 16.09 штиль 0 н/о {осадки} н/о +18.5 +16.5 88 +19 +19 1016.7 967.4 0.1
22 16.09 Ю 1 н/о н/о +18.6 +16.2 86 +21 +21 комфорт 1016.8 967.5 0.0
23 16.09 Ю 1 н/о н/о +17.7 +15.7 88 +19 +19 1016.5 967.1
00 17.09 штиль 0 н/о {осадки} н/о +17.6 +15.1 85 +18 +18 1016.5 967.1 0.1
01 17.09 З 1 н/о н/о +17.7 +14.3 80 +19 +19 1016.3 966.9
02 17.09 штиль 0 н/о н/о +16.7 +14.3 86 +17 +17 1016.6 967.0
03 17.09 штиль 0 н/о н/о +16.8 +13.4 80 +17 +17 1016.7 967.1
04 17.09 ЮЗ 1 н/о н/о +16.5 +12.4 77 +17 +17 1016.8 967.1
05 17.09 З 1 н/о н/о +16.1 +12.2 78 +17 +17 1017.3 967.5
06 17.09 З 1 40 км 8/0
[Ac As]
+16.2 +12.2 77 +17 +17 1017.5 967.7 +15.9 +20.8 0.1
07 17.09 ЮЗ 1 н/о н/о +17.1 +12.1 72 +18 +18 1017.2 967.6 0.0
08 17.09 ЮЗ 1 н/о н/о +18.3 +12.1 67 +20 +20 1017.0 967.6 0.0
09 17.09 ЮЗ 1 30 км 9/0
[Ac As]
+18.7 +12.3 66 +21 +24 комфорт 1017.0 967.7 0.0
10 17.09 З 2 н/о н/о +19.8 +12.7 64 +22 +22 комфорт 1016.8 967.7
11 17.09 СЗ 2 н/о н/о +19.5 +13.0 66 +22 +22 комфорт 1016.8 967.6
12 17.09 СЗ 2 30 км 9/9 2000 м
[Sc]
+18.8 +12.9 69 +20 +21 1016.6 967.3 0.0
13 17.09 СЗ 2 н/о н/о +18.7 +13.4 71 +20 +20 1016.2 966.9
14 17.09 СЗ 2 н/о н/о +17.9 +13.2 74 +18 +18 1016.4 967.0
15 17.09 СЗ 2 н/о н/о +17.8 +13.4 75 +18 +18 1016.2 966.8
16 17.09 З 1 н/о н/о +18.3 +11.7 65 +20 +20 1015.9 966.6
17 17.09 З 2 н/о н/о +17.6 +11.3 67 +18 +18 1016.3 966.8
18 17.09 З 1 30 км 5/4 2000 м
[Sc Ci fib]
+16.2 +11.3 73 +17 +17 1017.2 967.4 +16.2 +20.1 0.0
19 17.09 З 1 н/о н/о +14.6 +11.2 80 +15 +15 1018.2 968.1
20 17.09 ЮЗ 1 н/о н/о +14.3 +10.5 78 +15 +15 1019.1 968.9
21 17.09 ЮЗ 2 н/о н/о +14.2 +10.2 77 +14 +14 1019.4 969.2
22 17.09 ЮЗ 1 н/о н/о +13.3 +9.8 79 +14 +14 1020.0 969.6
23 17.09 ЮЗ 1 н/о н/о +13.3 +9.3 77 +14 +14 1020.4 970.0
00 18.09 З 1 н/о н/о +13.1 +8.5 74 +13 +13 1020.9 970.4

 

Местоположение метеостанции Рид-им-Иннкрайс (Австрия): широта 48.22 долгота 13.48 высота над уровнем моря 431 м.

В архиве по умолчанию представлена погода в Рид-им-Иннкрайсе за последнюю неделю. Архивные данные за месяц целиком и за предыдущие месяцы, начиная с января 2011 года, Вы можете получить, выбрав интересующий диапазон дат из раскрывающегося списка и нажав кнопку "Ввод!".


*Определитесь, кто Вы:
робот инопланетянин человек

Внимание! Время в таблицах - всемирное. Для получения местного времени необходимо прибавить поправку, которая равна 1 ч.

Смотрите также архив погоды в соседних городах и на ближайших метеорологических станциях:

Погода в Вольфсегг-ам-Хаусрукке (Австрия) (19 км)
Погода в Франкенмаркте (Австрия) (26 км)
Погода в Шердинге (Австрия) (28 км)
Погода в Рансхофене (Австрия) (33 км)
Погода в Фюрстенцелле (Германия) (38 км)
Погода в Маттзе (Австрия) (39 км)
Погода в Мондзе (Австрия) (42 км)
Погода в Гмундене (Австрия) (43 км)
Погода в Вельс / Шлайсхайм (Австрия) (44 км)
Погода в Фойеркогеле (Австрия) (48 км)

Пояснения к столбцам:

Ветер - указаны скорость ветра в м/с - средняя за 10 мин, порывы в срок и между сроками (в фигурных скобках) и направление, откуда дует ветер: С - северный, СВ - северо-восточный, В - восточный, ЮВ - юго-восточный, Ю - южный, ЮЗ - юго-западный, З - западный, СЗ - северо-западный.
Видимость - горизонтальная дальность видимости в метрах или километрах. При видимости от 1 до 10 км при отсутствии осадков обычно наблюдается дымка, при ухудшении видимости до 1 км и менее - туман. В сухую погоду видимость может ухудшаться дымом, пылью или мглою.
Явления - указаны атмосферные явления, наблюдавшиеся в срок или в последний час перед сроком; фигурными скобками обозначены явления, наблюдавшиеся между сроками (за 1-3 часа до срока); квадратными скобками обозначены град или гололедные отложения с указанием их диаметра в мм.
Облачность - указаны через наклонную черту общая и нижняя облачность в баллах и высота нижней границы облаков в метрах; квадратными скобками обозначены формы облаков: Ci - перистые, Cs - перисто-слоистые, Cc - перисто-кучевые, Ac - высококучевые, As - высокослоистые, Sc - слоисто-кучевые, Ns - слоисто-дождевые, Cu - кучевые, Cb - кучево-дождевые. Подробнее классификацию облаков см. в Атласе облаков (PDF).
T - Температура воздуха - температура, измеренная на высоте 2 м над землей.
Td - Температура точки росы - температура, при понижении до которой содержащийся в воздухе водяной пар достигнет насыщения.
f - Относительная влажность воздуха - влажноcть воздуха, измеренная на высоте 2 м над землей.
Te - Эффективная температура - температура, которую ощущает одетый по сезону человек в тени. Характеристика душности погоды. При расчете учитывается влияние влажности воздуха и скорости ветра на теплоощущения человека.
Tes - Эффективная температура на солнце - температура, которую ощущает человек, с поправкой на солнечный нагрев. Характеристика знойности погоды. Зависит от высоты солнца над горизонтом, облачности и скорости ветра. Ночью, в пасмурную погоду, а также при ветре 12 м/с и более поправка равна нулю.
P - Атмосферное давление - приведенное к уровню моря атмосферное давление.
Po - Атмосферное давление - измеренное на уровне метеостанции атмосферное давление.
Tmin - Минимальная температура - минимум температуры воздуха на высоте 2 м над землей.
Tmax - Максимальная температура - максимум температуры воздуха на высоте 2 м над землей.
R - Количество осадков - Количество выпавших осадков за период времени, мм. При наведении курсора мыши на число - период времени, за который выпало указанное количество осадков.
R24 - Количество осадков - Количество выпавших осадков за 24 часа, мм.
S - Снежный покров - Высота снежного покрова, см. При наведении курсора мыши на число - состояние снежного покрова и степень покрытия местности в баллах.